Вернуться в каталог

STARLINK-37094

АктивенСвязьVLEO
NORAD 68241·PAYLOAD·🇺🇸 United States

Запущен Mar 17, 2026 с Vandenberg Space Force Base

Loading…

Ближайшие Пролёты (ближайшие 24 часа)

TLE

СвежийSource: CelesTrak SupGP

Эпоха: Sep 15, 2026, 03:20 UTC

1 68241C 26054K   26258.13937500  .00041103  00000+0  12145-2 0  2580
2 68241  53.1559 134.4573 0001218  87.8896 227.9837 15.34367532    14

Отслеживайте STARLINK-37094 в реальном времени с AllMySat

Download on the App Store